FW4117 Weather Reports


Display with metric or nautical units.
time (UTC)temp
F
wind
direction
speed
MPH
gust
MPH
rain 1hr
in
rain 24hr
in
rain mn
in
humidity
%
barometer
mb
20260503013003 69 0 0.0 0.0 0.00 0.00 0.00 60 1018.2
20260503012714 69 0 0.0 0.0 0.00 0.00 0.00 58 1018.1
20260503012003 70 0 0.0 0.0 0.00 0.00 0.00 56 1018.1
20260503011503 70 0 0.0 0.0 0.00 0.00 0.00 53 1018.1
20260503011003 71 0 0.0 0.0 0.00 0.00 0.00 53 1018.1
20260503010503 71 0 0.0 0.0 0.00 0.00 0.00 52 1018.1
20260503010003 72 234 0.0 2.0 0.00 0.00 0.00 52 1018.0
20260503005503 72 234 0.0 2.0 0.00 0.00 0.00 51 1018.0
20260503005003 72 235 0.0 2.0 0.00 0.00 0.00 52 1017.9
20260503004503 73 236 0.0 2.0 0.00 0.00 0.00 50 1017.9
20260503004003 73 246 1.0 3.0 0.00 0.00 0.00 49 1018.0
20260503003714 73 247 1.0 3.0 0.00 0.00 0.00 49 1018.0
20260503003003 74 177 0.0 2.0 0.00 0.00 0.00 48 1017.9
20260503002503 74 185 0.0 2.0 0.00 0.00 0.00 47 1017.9
20260503002003 74 157 1.0 3.0 0.00 0.00 0.00 46 1017.9
20260503001503 75 130 1.0 3.0 0.00 0.00 0.00 46 1017.9
20260503001003 75 122 1.0 3.0 0.00 0.00 0.00 46 1017.9
20260503000503 75 129 1.0 4.0 0.00 0.00 0.00 45 1017.9
20260503000003 76 235 1.0 4.0 0.00 0.00 0.00 45 1017.9
20260502235503 76 246 1.0 3.0 0.00 0.00 0.00 44 1018.0
20260502235003 76 211 2.0 4.0 0.00 0.00 0.00 42 1018.1
20260502234503 76 190 2.0 4.0 0.00 0.00 0.00 43 1018.0
20260502234003 76 195 1.0 4.0 0.00 0.00 0.00 44 1018.0
20260502233503 77 199 1.0 5.0 0.00 0.00 0.00 43 1018.2
20260502233003 77 201 1.0 5.0 0.00 0.00 0.00 42 1018.1
20260502232713 77 198 1.0 5.0 0.00 0.00 0.00 41 1018.1
20260502232003 77 263 0.0 3.0 0.00 0.00 0.00 41 1018.1
20260502231503 77 227 1.0 4.0 0.00 0.00 0.00 42 1018.1
20260502231003 77 203 1.0 4.0 0.00 0.00 0.00 41 1018.2
20260502230003 77 4 1.0 3.0 0.00 0.00 0.00 40 1018.3
20260502225503 77 342 1.0 3.0 0.00 0.00 0.00 41 1018.2
20260502225003 77 299 1.0 4.0 0.00 0.00 0.00 40 1018.3
20260502224503 78 307 1.0 4.0 0.00 0.00 0.00 41 1018.3
20260502224214 78 317 1.0 7.0 0.00 0.00 0.00 40 1018.3
20260502223503 78 264 2.0 8.0 0.00 0.00 0.00 40 1018.4
20260502223003 78 231 2.0 8.0 0.00 0.00 0.00 40 1018.3
20260502222503 78 209 2.0 6.0 0.00 0.00 0.00 41 1018.3
20260502222214 78 239 2.0 4.0 0.00 0.00 0.00 41 1018.3
20260502221503 78 274 2.0 7.0 0.00 0.00 0.00 42 1018.4
20260502221003 78 290 1.0 4.0 0.00 0.00 0.00 41 1018.3
20260502220503 78 289 1.0 5.0 0.00 0.00 0.00 41 1018.5
20260502220003 78 279 1.0 5.0 0.00 0.00 0.00 42 1018.5
20260502215503 77 311 1.0 3.0 0.00 0.00 0.00 41 1018.5
20260502215003 77 262 1.0 7.0 0.00 0.00 0.00 41 1018.6
20260502214503 77 259 2.0 7.0 0.00 0.00 0.00 42 1018.6
20260502214213 77 281 2.0 7.0 0.00 0.00 0.00 40 1018.7
20260502213503 78 287 2.0 7.0 0.00 0.00 0.00 42 1018.9
20260502213213 77 275 2.0 7.0 0.00 0.00 0.00 42 1018.8
20260502212503 77 275 1.0 5.0 0.00 0.00 0.00 44 1018.9
20260502212003 76 284 1.0 3.0 0.00 0.00 0.00 46 1019.0
20260502211503 76 280 1.0 4.0 0.00 0.00 0.00 45 1019.1
20260502211003 76 281 1.0 4.0 0.00 0.00 0.00 43 1019.1
20260502210503 77 274 1.0 4.0 0.00 0.00 0.00 42 1019.2
20260502210003 78 261 2.0 6.0 0.00 0.00 0.00 41 1019.2
20260502205712 77 282 1.0 6.0 0.00 0.00 0.00 42 1019.2
20260502205003 77 292 1.0 7.0 0.00 0.00 0.00 43 1019.3
20260502204503 78 277 1.0 4.0 0.00 0.00 0.00 42 1019.4
20260502204003 78 261 2.0 9.0 0.00 0.00 0.00 43 1019.5
20260502203503 77 259 2.0 9.0 0.00 0.00 0.00 44 1019.4
20260502203003 77 301 1.0 3.0 0.00 0.00 0.00 43 1019.5
20260502202503 76 345 1.0 4.0 0.00 0.00 0.00 40 1019.5
20260502202213 77 303 1.0 6.0 0.00 0.00 0.00 41 1019.5
20260502201503 77 257 2.0 7.0 0.00 0.00 0.00 42 1019.8
20260502201003 78 251 2.0 9.0 0.00 0.00 0.00 41 1019.8
20260502200503 77 264 2.0 9.0 0.00 0.00 0.00 43 1019.9
20260502200003 76 348 1.0 5.0 0.00 0.00 0.00 42 1019.9
20260502195714 76 348 1.0 5.0 0.00 0.00 0.00 40 1019.8
20260502195003 77 338 1.0 6.0 0.00 0.00 0.00 40 1020.0
20260502194503 77 339 1.0 6.0 0.00 0.00 0.00 43 1019.9
20260502194003 77 315 1.0 6.0 0.00 0.00 0.00 42 1020.0
20260502193714 77 292 1.0 6.0 0.00 0.00 0.00 41 1020.1
20260502193003 76 270 1.0 6.0 0.00 0.00 0.00 41 1020.1
20260502192503 76 275 1.0 6.0 0.00 0.00 0.00 41 1020.1
20260502192003 76 275 1.0 5.0 0.00 0.00 0.00 43 1020.1
20260502191714 76 271 2.0 5.0 0.00 0.00 0.00 41 1020.2
20260502191213 76 259 2.0 7.0 0.00 0.00 0.00 44 1020.2
20260502190503 76 250 2.0 7.0 0.00 0.00 0.00 43 1020.3
20260502190213 76 251 2.0 7.0 0.00 0.00 0.00 42 1020.3
20260502185713 76 262 2.0 7.0 0.00 0.00 0.00 41 1020.4
20260502185213 76 161 1.0 4.0 0.00 0.00 0.00 45 1020.4
20260502184503 76 189 2.0 7.0 0.00 0.00 0.00 40 1020.5
20260502184212 76 226 2.0 7.0 0.00 0.00 0.00 42 1020.6
20260502183503 76 294 1.0 4.0 0.00 0.00 0.00 43 1020.8
20260502183212 76 337 1.0 4.0 0.00 0.00 0.00 42 1020.8
20260502182503 75 292 1.0 6.0 0.00 0.00 0.00 44 1021.0
20260502182003 75 269 2.0 6.0 0.00 0.00 0.00 40 1021.0
20260502181503 75 271 2.0 5.0 0.00 0.00 0.00 44 1021.0
20260502181003 76 247 2.0 5.0 0.00 0.00 0.00 42 1021.1
20260502180503 76 185 1.0 4.0 0.00 0.00 0.00 42 1021.2
20260502170503 74 251 1.0 3.0 0.00 0.00 0.00 43 1021.9
20260502164003 73 203 1.0 5.0 0.00 0.00 0.00 48 1022.1
20260502163503 73 243 2.0 6.0 0.00 0.00 0.00 50 1022.1
20260502163003 72 301 2.0 6.0 0.00 0.00 0.00 48 1022.1
20260502162713 72 323 1.0 6.0 0.00 0.00 0.00 47 1022.0
20260502162003 72 316 1.0 4.0 0.00 0.00 0.00 49 1022.0
20260502161503 72 301 1.0 4.0 0.00 0.00 0.00 51 1022.0
20260502161003 72 295 1.0 4.0 0.00 0.00 0.00 51 1022.0
20260502160503 71 324 1.0 5.0 0.00 0.00 0.00 52 1022.0
20260502152003 69 302 1.0 6.0 0.00 0.00 0.00 54 1021.7
20260502151503 69 336 1.0 6.0 0.00 0.00 0.00 54 1021.8
20260502151003 68 306 1.0 3.0 0.00 0.00 0.00 55 1021.6
20260502150503 68 286 1.0 5.0 0.00 0.00 0.00 58 1021.7
20260502130503 54 356 0.0 1.0 0.00 0.00 0.00 93 1021.1
20260502123503 49 0 0.0 0.0 0.00 0.00 0.00 93 1020.8
20260502123003 48 0 0.0 0.0 0.00 0.00 0.00 93 1020.6
20260502122503 48 0 0.0 0.0 0.00 0.00 0.00 93 1020.5
20260502122212 48 0 0.0 0.0 0.00 0.00 0.00 93 1020.4
20260502121503 48 0 0.0 0.0 0.00 0.00 0.00 92 1020.2
20260502121003 48 0 0.0 0.0 0.00 0.00 0.00 92 1020.1
20260502120503 48 0 0.0 0.0 0.00 0.00 0.00 92 1020.0
20260502120214 48 0 0.0 0.0 0.00 0.00 0.00 92 1019.9
20260502115503 48 0 0.0 0.0 0.00 0.00 0.00 92 1019.9
20260502115003 48 0 0.0 0.0 0.00 0.00 0.00 92 1019.9
20260502114713 48 0 0.0 0.0 0.00 0.00 0.00 92 1019.9
20260502114003 48 0 0.0 0.0 0.00 0.00 0.00 92 1019.8
20260502113503 48 0 0.0 0.0 0.00 0.00 0.00 92 1019.6
20260502113003 48 0 0.0 0.0 0.00 0.00 0.00 92 1019.5
20260502112503 48 0 0.0 0.0 0.00 0.00 0.00 92 1019.6
20260502112003 48 0 0.0 0.0 0.00 0.00 0.00 92 1019.3
20260502111503 48 0 0.0 0.0 0.00 0.00 0.00 92 1019.3
20260502111003 48 0 0.0 0.0 0.00 0.00 0.00 92 1019.1
20260502110503 48 0 0.0 0.0 0.00 0.00 0.00 92 1019.0
20260502110003 48 0 0.0 0.0 0.00 0.00 0.00 92 1018.9
20260502105503 48 0 0.0 0.0 0.00 0.00 0.00 92 1018.8
20260502105003 48 0 0.0 0.0 0.00 0.00 0.00 92 1018.9
20260502104712 48 0 0.0 0.0 0.00 0.00 0.00 92 1018.9
20260502104003 48 0 0.0 0.0 0.00 0.00 0.00 92 1018.8
20260502103503 48 0 0.0 0.0 0.00 0.00 0.00 92 1018.8
20260502103003 48 0 0.0 0.0 0.00 0.00 0.00 92 1018.8
20260502102503 49 0 0.0 0.0 0.00 0.00 0.00 92 1018.8
20260502102003 49 0 0.0 0.0 0.00 0.00 0.00 92 1019.0
20260502101503 49 0 0.0 0.0 0.00 0.00 0.00 92 1019.0
20260502101003 49 0 0.0 0.0 0.00 0.00 0.00 92 1019.1
20260502100712 49 0 0.0 0.0 0.00 0.00 0.00 92 1019.0
20260502091503 48 0 0.0 0.0 0.00 0.00 0.00 91 1018.6
20260502091003 48 0 0.0 0.0 0.00 0.00 0.00 91 1018.6
20260502090503 49 0 0.0 0.0 0.00 0.00 0.00 91 1018.6
20260502071503 52 0 0.0 0.0 0.00 0.00 0.00 87 1018.8
20260502071212 52 0 0.0 0.0 0.00 0.00 0.00 87 1018.8
20260502070503 52 0 0.0 0.0 0.00 0.00 0.00 87 1018.8
20260502070003 52 0 0.0 0.0 0.00 0.00 0.00 86 1018.8
20260502065503 52 0 0.0 0.0 0.00 0.00 0.00 86 1018.9
20260502065003 53 0 0.0 0.0 0.00 0.00 0.00 85 1018.9
20260502064503 53 0 0.0 0.0 0.00 0.00 0.00 84 1018.9
20260502064003 54 356 0.0 1.0 0.00 0.00 0.00 84 1018.9
20260502063503 54 356 0.0 1.0 0.00 0.00 0.00 84 1019.0
20260502063003 54 356 0.0 1.0 0.00 0.00 0.00 84 1019.0
20260502062503 54 356 0.0 1.0 0.00 0.00 0.00 84 1018.9
20260502062003 54 356 0.0 1.0 0.00 0.00 0.00 84 1018.9
20260502061503 54 356 0.0 1.0 0.00 0.00 0.00 84 1018.9
20260502061003 54 356 0.0 2.0 0.00 0.00 0.00 84 1018.8
20260502060503 54 356 0.0 2.0 0.00 0.00 0.00 84 1018.8
20260502060003 54 3 0.0 1.0 0.00 0.00 0.00 85 1018.8
20260502055503 54 10 0.0 1.0 0.00 0.00 0.00 85 1018.8
20260502055003 54 37 0.0 1.0 0.00 0.00 0.00 86 1018.8
20260502054503 54 0 0.0 0.0 0.00 0.00 0.00 86 1018.8
20260502054214 54 0 0.0 0.0 0.00 0.00 0.00 86 1018.8
20260502053503 54 38 0.0 1.0 0.00 0.00 0.00 86 1018.7
20260502053003 54 0 0.0 0.0 0.00 0.00 0.00 87 1018.7
20260502052503 54 38 0.0 1.0 0.00 0.00 0.00 86 1018.8
20260502052213 54 38 0.0 1.0 0.00 0.00 0.00 86 1018.8
20260502051503 55 0 0.0 0.0 0.00 0.00 0.00 85 1018.7
20260502051003 55 0 0.0 0.0 0.00 0.00 0.00 85 1018.9
20260502050503 55 0 0.0 0.0 0.00 0.00 0.00 85 1018.9
20260502050003 55 0 0.0 0.0 0.00 0.00 0.00 85 1018.9
20260502045503 55 0 0.0 0.0 0.00 0.00 0.00 85 1018.8
20260502045003 55 0 0.0 0.0 0.00 0.00 0.00 85 1018.8
20260502044503 56 0 0.0 0.0 0.00 0.00 0.00 84 1018.8
20260502044003 56 0 0.0 0.0 0.00 0.00 0.00 84 1018.9
20260502043503 56 0 0.0 0.0 0.00 0.00 0.00 84 1018.8
20260502043003 56 0 0.0 0.0 0.00 0.00 0.00 84 1018.8
20260502042503 57 0 0.0 0.0 0.00 0.00 0.00 84 1018.7
20260502042003 57 38 0.0 1.0 0.00 0.00 0.00 83 1018.6
20260502041503 57 38 0.0 1.0 0.00 0.00 0.00 83 1018.6
20260502041003 57 0 0.0 0.0 0.00 0.00 0.00 82 1018.6
20260502040503 57 0 0.0 0.0 0.00 0.00 0.00 81 1018.5
20260502040003 58 0 0.0 0.0 0.00 0.00 0.00 79 1018.6
20260502035503 58 0 0.0 0.0 0.00 0.00 0.00 78 1018.6
20260502035003 58 0 0.0 0.0 0.00 0.00 0.00 78 1018.5
20260502034714 58 0 0.0 0.0 0.00 0.00 0.00 78 1018.6
20260502034003 58 0 0.0 0.0 0.00 0.00 0.00 78 1018.6
20260502033503 58 0 0.0 0.0 0.00 0.00 0.00 80 1018.5
20260502033003 58 0 0.0 0.0 0.00 0.00 0.00 82 1018.3
20260502032503 58 0 0.0 0.0 0.00 0.00 0.00 82 1018.2
20260502032003 58 0 0.0 0.0 0.00 0.00 0.00 83 1018.3
20260502031503 58 0 0.0 0.0 0.00 0.00 0.00 83 1018.3
20260502031003 58 0 0.0 0.0 0.00 0.00 0.00 83 1018.2
20260502030503 58 0 0.0 0.0 0.00 0.00 0.00 82 1018.2
20260502030003 59 0 0.0 0.0 0.00 0.00 0.00 81 1018.2
20260502025503 59 0 0.0 0.0 0.00 0.00 0.00 80 1018.1
20260502025003 60 0 0.0 0.0 0.00 0.00 0.00 79 1018.0
20260502024503 60 0 0.0 0.0 0.00 0.00 0.00 78 1018.0
20260502024003 60 0 0.0 0.0 0.00 0.00 0.00 78 1017.8
20260502023503 60 0 0.0 0.0 0.00 0.00 0.00 77 1017.8
20260502023003 61 0 0.0 0.0 0.00 0.00 0.00 76 1017.8
20260502022713 61 0 0.0 0.0 0.00 0.00 0.00 77 1017.6
20260502022003 61 0 0.0 0.0 0.00 0.00 0.00 76 1017.5
20260502021503 62 0 0.0 0.0 0.00 0.00 0.00 75 1017.6
20260502021003 61 0 0.0 0.0 0.00 0.00 0.00 74 1017.5
20260502020503 62 0 0.0 0.0 0.00 0.00 0.00 74 1017.5
20260502020212 62 0 0.0 0.0 0.00 0.00 0.00 74 1017.4
20260502015503 62 0 0.0 0.0 0.00 0.00 0.00 73 1017.3
20260502015003 62 0 0.0 0.0 0.00 0.00 0.00 74 1017.2
20260502014503 62 0 0.0 0.0 0.00 0.00 0.00 74 1017.1
20260502014003 62 0 0.0 0.0 0.00 0.00 0.00 73 1017.1